Weather History for Denver, CO

Change the Weather History Date:

Saturday, December 8, 2012

  Actual Average (KDEN) Record (KDEN)
Temperature  
Mean Temperature 40 °F 30 °F  
Max Temperature 53 °F 43 °F 73 °F (1940)
Min Temperature 26 °F 17 °F -14 °F (1919)
Degree Days  
Heating Degree Days 26 35  
Month to date heating degree days 272  
Since 1 July heating degree days 1654  
Cooling Degree Days 0 0  
Month to date cooling degree days 0  
Year to date cooling degree days 769  
Moisture  
Dew Point 21 °F    
Average Humidity 57    
Maximum Humidity 86    
Minimum Humidity 24    
Precipitation  
Precipitation 0.00 in 0.02 in 0.48 in (1923)
Month to date precipitation 0.10  
Year to date precipitation 14.05  
Snow  
Snow 0.00 in - - ()
Month to date snowfall  
Since 1 July snowfall  
Snow Depth -    
Sea Level Pressure  
Sea Level Pressure 29.75 in    
Wind  
Wind Speed 13 mph (East)    
Max Wind Speed 29 mph    
Max Gust Speed 34 mph    
Visibility 9 miles    
Events Snow    
T = Trace of Precipitation, MM = Missing Value Source: NWS Daily Summary

Daily Weather History Graph

Daily Weather History Graph

Search for Another Location

Airport:

Trip Planner

Search our weather history database for the weather conditions in past years. The results will help you decide how hot, cold, wet, or windy it might be!

Date:

Astronomy

Dec. 08, 2012 Rise Set
Actual Time 7:07 AM MST 4:33 PM MST
Civil Twilight 6:36 AM MST 5:03 PM MST
Nautical Twilight 6:03 AM MST 5:37 PM MST
Astronomical Twilight 5:30 AM MST 6:10 PM MST
Moon 1:35 AM MST (12/8) 1:04 PM MST (12/8)
Length of Visible Light 10h 26m
Length of Day
9h 26m
Waning Crescent, 27% of the Moon is Illuminated
Dec 8
Waning Crescent
Dec 13
New
Dec 19
First Quarter
Dec 28
Full
Jan 4
Last Quarter

Hourly Weather History & Observations

Time (MST) Temp. Windchill Dew Point Humidity Pressure Visibility Wind Dir Wind Speed Gust Speed Precip Events Conditions
12:00 AM 32.0 °F 21.2 °F 24.8 °F 75% 29.89 in 10.0 mi SSE 16.1 mph - N/A   Scattered Clouds
12:21 AM 32.0 °F 20.1 °F 26.6 °F 80% 29.87 in 10.0 mi SSE 19.6 mph - N/A   Scattered Clouds
12:39 AM 32.0 °F 20.1 °F 24.8 °F 75% 29.86 in 10.0 mi SSE 19.6 mph 26.5 mph N/A   Scattered Clouds
1:01 AM 32.0 °F 19.8 °F 24.8 °F 75% 29.84 in 10.0 mi SSE 20.7 mph 26.5 mph N/A   Clear
1:21 AM 32.0 °F 19.5 °F 23.0 °F 69% 29.83 in 10.0 mi SSE 21.9 mph 25.3 mph N/A   Clear
1:41 AM 30.2 °F 17.8 °F 23.0 °F 75% 29.83 in 10.0 mi SE 19.6 mph 25.3 mph N/A   Clear
2:00 AM 28.4 °F 17.5 °F 23.0 °F 80% 29.82 in 10.0 mi SE 13.8 mph - N/A   Clear
2:21 AM 28.4 °F 17.0 °F 21.2 °F 74% 29.81 in 10.0 mi SSE 15.0 mph - N/A   Clear
2:41 AM 26.6 °F 17.5 °F 21.2 °F 80% 29.81 in 10.0 mi SSE 9.2 mph - N/A   Clear
3:01 AM 26.6 °F 16.8 °F 21.2 °F 80% 29.80 in 10.0 mi SE 10.4 mph - N/A   Clear
3:21 AM 26.6 °F 16.8 °F 21.2 °F 80% 29.80 in 10.0 mi SSE 10.4 mph - N/A   Clear
3:39 AM 26.6 °F 19.1 °F 21.2 °F 80% 29.80 in 10.0 mi SSE 6.9 mph - N/A   Clear
3:59 AM 26.6 °F 20.0 °F 21.2 °F 80% 29.78 in 10.0 mi South 5.8 mph - N/A   Clear
4:21 AM 30.2 °F 21.9 °F 23.0 °F 75% 29.77 in 10.0 mi South 9.2 mph - N/A   Clear
4:41 AM 30.2 °F 21.9 °F 21.2 °F 69% 29.76 in 10.0 mi South 9.2 mph - N/A   Scattered Clouds
5:01 AM 32.0 °F 21.6 °F 23.0 °F 69% 29.75 in 10.0 mi SSW 15.0 mph 19.6 mph N/A   Clear
5:21 AM 32.0 °F 21.6 °F 23.0 °F 69% 29.75 in 10.0 mi SSW 15.0 mph - N/A   Clear
5:41 AM 32.0 °F 22.1 °F 23.0 °F 69% 29.75 in 10.0 mi SSW 13.8 mph - N/A   Clear
6:00 AM 32.0 °F 21.6 °F 23.0 °F 69% 29.74 in 10.0 mi SSW 15.0 mph - N/A   Clear
6:21 AM 32.0 °F 21.6 °F 23.0 °F 69% 29.74 in 10.0 mi SSW 15.0 mph - N/A   Clear
6:41 AM 32.0 °F 22.1 °F 21.2 °F 64% 29.73 in 10.0 mi SSW 13.8 mph - N/A   Clear
7:01 AM 32.0 °F 23.0 °F 21.2 °F 64% 29.72 in 10.0 mi South 11.5 mph - N/A   Clear
7:21 AM 30.2 °F 24.3 °F 21.2 °F 69% 29.73 in 10.0 mi South 5.8 mph - N/A   Clear
7:38 AM 30.2 °F 22.6 °F 21.2 °F 69% 29.73 in 10.0 mi SSW 8.1 mph - N/A   Clear
7:47 AM 30.2 °F 25.4 °F 21.2 °F 69% 29.73 in 40.0 mi South 4.6 mph - N/A   Scattered Clouds
7:57 AM 30.2 °F 23.4 °F 21.2 °F 69% 29.72 in 10.0 mi South 6.9 mph - N/A   Clear
8:21 AM 32.0 °F 25.6 °F 23.0 °F 69% 29.71 in 10.0 mi South 6.9 mph - N/A   Clear
8:38 AM 33.8 °F 27.0 °F 23.0 °F 65% 29.71 in 10.0 mi SSE 8.1 mph - N/A   Clear
8:47 AM 35.6 °F 29.2 °F 23.0 °F 60% 29.71 in 40.0 mi SSE 8.1 mph - N/A   Scattered Clouds
8:58 AM 35.6 °F 29.2 °F 23.0 °F 60% 29.71 in 10.0 mi South 8.1 mph - N/A   Clear
9:20 AM 39.2 °F 35.0 °F 23.0 °F 52% 29.71 in 10.0 mi South 5.8 mph - N/A   Clear
9:37 AM 41.0 °F 35.8 °F 23.0 °F 49% 29.70 in 10.0 mi SSE 8.1 mph - N/A   Clear
9:47 AM 44.6 °F - 21.2 °F 39% 29.70 in 40.0 mi Calm Calm - N/A   Scattered Clouds
9:58 AM 42.8 °F - 23.0 °F 46% 29.70 in 10.0 mi Calm Calm - N/A   Clear
10:21 AM 44.6 °F - 21.2 °F 39% 29.70 in 10.0 mi Calm Calm - N/A   Clear
10:38 AM 44.6 °F - 21.2 °F 39% 29.70 in 10.0 mi Calm Calm - N/A   Clear
10:56 AM 46.4 °F 43.5 °F 21.2 °F 37% 29.69 in 10.0 mi East 5.8 mph - N/A   Clear
11:17 AM 46.4 °F 45.2 °F 21.2 °F 37% 29.68 in 10.0 mi East 3.5 mph - N/A   Clear
11:41 AM 48.2 °F - 21.2 °F 34% 29.66 in 10.0 mi East 4.6 mph - N/A   Clear
11:58 AM 50.0 °F - 21.2 °F 32% 29.65 in 10.0 mi East 5.8 mph - N/A   Clear
12:20 PM 50.0 °F - 21.2 °F 32% 29.64 in 10.0 mi NNE 6.9 mph - N/A   Clear
12:37 PM 50.0 °F - 21.2 °F 32% 29.64 in 10.0 mi Calm Calm - N/A   Clear
12:57 PM 50.0 °F - 19.4 °F 30% 29.64 in 40.0 mi WNW 3.5 mph - N/A   Scattered Clouds
1:01 PM 50.0 °F - 19.4 °F 30% 29.64 in 10.0 mi NNE 3.5 mph - N/A   Clear
1:39 PM 51.8 °F - 21.2 °F 30% 29.62 in 10.0 mi NW 4.6 mph - N/A   Clear
1:50 PM 51.8 °F - 19.4 °F 28% 29.62 in 50.0 mi Calm Calm - N/A   Scattered Clouds
1:58 PM 51.8 °F - 21.2 °F 30% 29.63 in 10.0 mi NNE 4.6 mph 9.2 mph N/A   Clear
2:18 PM 51.8 °F - 19.4 °F 28% 29.62 in 10.0 mi West 12.7 mph 23.0 mph N/A   Clear
2:39 PM 53.6 °F - 17.6 °F 24% 29.62 in 10.0 mi WNW 19.6 mph 25.3 mph N/A   Scattered Clouds
2:55 PM 53.6 °F - 17.6 °F 24% 29.63 in 50.0 mi WSW 23.0 mph 34.5 mph N/A   Mostly Cloudy
2:59 PM 51.8 °F - 15.8 °F 24% 29.62 in 10.0 mi West 28.8 mph 33.4 mph N/A   Mostly Cloudy
3:17 PM 50.0 °F - 17.6 °F 28% 29.62 in 10.0 mi SE 3.5 mph 21.9 mph N/A   Mostly Cloudy
3:41 PM 51.8 °F - 17.6 °F 26% 29.66 in 10.0 mi WNW 15.0 mph 18.4 mph N/A   Scattered Clouds
3:47 PM 48.2 °F - 19.4 °F 32% 29.68 in 50.0 mi North 13.8 mph 24.2 mph N/A   Mostly Cloudy
3:59 PM 46.4 °F 38.7 °F 21.2 °F 37% 29.69 in 10.0 mi NE 20.7 mph 24.2 mph N/A   Scattered Clouds
4:20 PM 37.4 °F 27.2 °F 26.6 °F 65% 29.68 in 10.0 mi NE 19.6 mph 25.3 mph N/A   Clear
4:39 PM 35.6 °F 26.6 °F 26.6 °F 70% 29.70 in 10.0 mi NE 13.8 mph - N/A   Clear
4:48 PM 35.6 °F 26.6 °F 24.8 °F 65% 29.70 in 50.0 mi NE 13.8 mph 20.7 mph N/A   Mostly Cloudy
5:00 PM 33.8 °F 24.8 °F 24.8 °F 70% 29.71 in 10.0 mi NE 12.7 mph - N/A   Scattered Clouds
5:21 PM 33.8 °F 22.5 °F 24.8 °F 70% 29.70 in 10.0 mi NNE 19.6 mph - N/A   Scattered Clouds
5:40 PM 33.8 °F 25.3 °F 23.0 °F 65% 29.73 in 10.0 mi ENE 11.5 mph - N/A   Scattered Clouds
5:50 PM 33.8 °F 26.4 °F 23.0 °F 65% 29.74 in 20.0 mi NE 9.2 mph - N/A   Mostly Cloudy
6:01 PM 33.8 °F 23.9 °F 23.0 °F 65% 29.75 in 10.0 mi NE 15.0 mph - N/A   Scattered Clouds
6:16 PM 33.8 °F 21.3 °F 21.2 °F 60% 29.76 in 10.0 mi NNE 24.2 mph 27.6 mph N/A   Mostly Cloudy
7:01 PM 32.0 °F 19.5 °F 17.6 °F 55% 29.78 in 10.0 mi North 21.9 mph 28.8 mph N/A   Overcast
7:12 PM 30.2 °F 17.4 °F 21.2 °F 69% 29.81 in 5.0 mi North 20.7 mph 32.2 mph N/A Snow Light Snow
7:18 PM 32.0 °F 20.1 °F 21.2 °F 64% 29.80 in 5.0 mi North 19.6 mph 27.6 mph N/A Snow Light Snow
7:39 PM 28.4 °F 16.2 °F 24.8 °F 86% 29.81 in 1.0 mi NNE 17.3 mph - N/A Snow Snow
7:40 PM 30.2 °F 17.8 °F 24.8 °F 80% 29.81 in 1.5 mi NNE 19.6 mph 25.3 mph N/A Snow Light Snow
7:52 PM 28.4 °F 16.6 °F 19.4 °F 69% 29.83 in 2.0 mi NNE 16.1 mph - N/A Snow Light Snow
8:02 PM 28.4 °F 17.5 °F 19.4 °F 69% 29.83 in 5.0 mi NNE 13.8 mph - N/A Snow Light Snow
8:22 PM 28.4 °F 17.0 °F 19.4 °F 69% 29.82 in 7.0 mi North 15.0 mph - N/A Snow Light Snow
8:41 PM 28.4 °F 17.0 °F 23.0 °F 80% 29.83 in 1.0 mi North 15.0 mph - N/A Snow Snow
8:48 PM 26.6 °F 15.2 °F 23.0 °F 86% 29.83 in 1.0 mi North 13.8 mph - N/A Snow Snow
9:01 PM 28.4 °F 19.1 °F 21.2 °F 74% 29.84 in 4.0 mi North 10.4 mph - N/A Snow Light Snow
9:16 PM 30.2 °F 20.8 °F 17.6 °F 60% 29.84 in 10.0 mi North 11.5 mph - N/A   Overcast
9:37 PM 30.2 °F 19.8 °F 15.8 °F 55% 29.84 in 10.0 mi North 13.8 mph 23.0 mph N/A   Overcast
9:58 PM 30.2 °F 19.3 °F 12.2 °F 47% 29.87 in 10.0 mi NNW 15.0 mph 21.9 mph N/A   Overcast
10:20 PM 28.4 °F 18.5 °F 12.2 °F 51% 29.86 in 10.0 mi NNW 11.5 mph - N/A   Overcast
10:41 PM 28.4 °F 16.6 °F 10.4 °F 47% 29.87 in 10.0 mi NNW 16.1 mph 21.9 mph N/A   Overcast
10:58 PM 28.4 °F 14.4 °F 10.4 °F 47% 29.87 in 10.0 mi North 23.0 mph 33.4 mph N/A   Overcast
11:18 PM 28.4 °F 15.8 °F 10.4 °F 47% 29.87 in 10.0 mi North 18.4 mph 27.6 mph N/A   Overcast
11:38 PM 28.4 °F 15.8 °F 8.6 °F 43% 29.87 in 10.0 mi North 18.4 mph - N/A   Overcast
11:57 PM 28.4 °F 18.5 °F 10.4 °F 47% 29.89 in 10.0 mi North 11.5 mph 21.9 mph N/A   Overcast